This is the latest recevied weather packets stored in our database for station/object KC4KQE. If no packets are shown the sender has not sent any weather packets the latest 10 day(s).
| Time | Temp. | Humidity | Pressure | Rain* | Wind** | Luminosity | Snow |
|---|---|---|---|---|---|---|---|
| 1777392856 | 22.22° C | 22% | 1017 hPa | 0 mm | - | 622 W/m² | - |
| 1777392556 | 22.22° C | 22% | 1017 hPa | 0 mm | - | 608 W/m² | - |
| 1777392256 | 21.67° C | 22% | 1017 hPa | 0 mm | - | 594 W/m² | - |
| 1777391957 | 21.67° C | 22% | 1017 hPa | 0 mm | - | 578 W/m² | - |
| 1777391656 | 21.11° C | 22% | 1017.1 hPa | 0 mm | - | 564 W/m² | - |
| 1777391356 | 21.11° C | 23% | 1017.1 hPa | 0 mm | - | 547 W/m² | - |
| 1777391056 | 21.67° C | 23% | 1017 hPa | 0 mm | - | 533 W/m² | - |
| 1777390756 | 21.11° C | 23% | 1017 hPa | 0 mm | - | 513 W/m² | - |
| 1777390456 | 21.11° C | 23% | 1017 hPa | 0 mm | - | 499 W/m² | - |
| 1777390156 | 21.11° C | 23% | 1017 hPa | 0 mm | - | 482 W/m² | - |
| 1777389856 | 20.56° C | 23% | 1016.9 hPa | 0 mm | - | 466 W/m² | - |
| 1777389557 | 20.56° C | 23% | 1016.9 hPa | 0 mm | - | 446 W/m² | - |
| 1777389262 | 20.56° C | 23% | 1016.9 hPa | 0 mm | - | 432 W/m² | - |
| 1777388956 | 20.56° C | 23% | 1016.9 hPa | 0 mm | - | 417 W/m² | - |
| 1777388657 | 20° C | 24% | 1016.8 hPa | 0 mm | - | 397 W/m² | - |
| 1777388356 | 20° C | 24% | 1016.7 hPa | 0 mm | - | 381 W/m² | - |
| 1777388056 | 19.44° C | 25% | 1016.7 hPa | 0 mm | - | 364 W/m² | - |
| 1777387756 | 19.44° C | 25% | 1016.7 hPa | 0 mm | - | 346 W/m² | - |
| 1777387456 | 19.44° C | 25% | 1016.7 hPa | 0 mm | - | 327 W/m² | - |
| 1777387156 | 18.89° C | 25% | 1016.6 hPa | 0 mm | - | 311 W/m² | - |
| 1777386856 | 18.89° C | 25% | 1016.5 hPa | 0 mm | - | 292 W/m² | - |
| 1777386556 | 18.89° C | 26% | 1016.6 hPa | 0 mm | - | 276 W/m² | - |
| 1777386256 | 18.33° C | 27% | 1016.6 hPa | 0 mm | - | 257 W/m² | - |
| 1777385956 | 17.78° C | 28% | 1016.6 hPa | 0 mm | - | 234 W/m² | - |
| 1777385656 | 17.22° C | 29% | 1016.6 hPa | 0 mm | - | 225 W/m² | - |
* Rain latest hour (hover to see other rain measurements)
** Current wind speed in m/s (hover to see current wind gust speed)